Regional Weather Roundup
Issued by NWS

Home | Current Version | Previous Version | Graphics & Text | Print | Product List | Glossary Off
Versions: 1 2 3 4 5 6 7 8 9 10 11 12 13 14 15 16 17 18 19 20 21 22 23 24 25 26 27 28 29 30 31 32 33 34 35 36 37 38 39 40 41 42 43 44 45 46 47 48 49 50

000
ASUS43 KFSD 201110
RWRSD

WEATHER ROUNDUP FOR SOUTH DAKOTA
NATIONAL WEATHER SERVICE SIOUX FALLS SD
600 AM CDT SUN APR 20 2014

NOTE: "FAIR" INDICATES FEW OR NO CLOUDS BELOW 12,000 FEET WITH NO
SIGNIFICANT WEATHER AND/OR OBSTRUCTIONS TO VISIBILITY.


SDZ001>005-009-010-012>017-201200-
NORTHWEST AND NORTH CENTRAL SOUTH DAKOTA

CITY           SKY/WX    TMP DP  RH WIND       PRES   REMARKS
BUFFALO          N/A     43  27  53 S3        29.86S
FAITH            N/A     37  28  70 S17       29.93S
MOBRIDGE       CLEAR     36  31  82 E9        29.95F
$$

SDZ012>016-024>037-041>051-057-063-072>074-201200-
SOUTHWEST AND SOUTH CENTRAL SOUTH DAKOTA

CITY           SKY/WX    TMP DP  RH WIND       PRES   REMARKS
RAPID CTY ARPT CLEAR     39  29  67 CALM      29.92S
PIERRE         CLEAR     34  26  72 NE3       29.97S
CUSTER         CLEAR     37  29  72 NW3       29.97F
ELLSWORTH AFB  CLEAR     44  29  57 S7        29.91F
PHILIP         PTCLDY    40  28  62 E5        29.95F
PINE RIDGE     MOCLDY    52  40  63 S12       29.95F
SPEARFISH      FAIR      41  32  70 S7        29.93S
WINNER         FAIR      41  22  46 S6        29.99F
$$

SDZ004>011-016>023-039-040-201200-
NORTHEAST SOUTH DAKOTA

CITY           SKY/WX    TMP DP  RH WIND       PRES   REMARKS
ABERDEEN       CLEAR     32  30  92 NE7       30.01S WCI  26
WATERTOWN      CLEAR     39  33  79 E3        30.03S
SISSETON         N/A     35  32  88 W5        30.04S
$$

SDZ017-020-022-023-036>040-048>070-201200-
SOUTHEAST SOUTH DAKOTA

CITY           SKY/WX    TMP DP  RH WIND       PRES   REMARKS
SIOUX FALLS    CLOUDY    51  40  65 N7        30.00S
HURON          CLEAR     33  28  81 E5        30.01S WCI  29
CHAMBERLAIN      N/A     43  35  73 S3        30.00F
MITCHELL       CLEAR     36  28  73 CALM      30.01S
YANKTON        CLEAR     50  36  57 N7        29.98S
$$

ABBREVIATIONS USED IN REMARKS
   TC - TEMPERATURE IN CELSIUS
  WCI - WIND CHILL INDEX
   HX - HEAT INDEX
  VSB - VISIBILITY




USA.gov is the U.S. government's official web portal to all federal, state and local government web resources and services.